Regional Weather Roundup
Issued by NWS

Home | Current Version | Previous Version | Graphics & Text | Print | Product List | Glossary On
Versions: 1 2 3 4 5 6 7 8 9 10 11 12 13 14 15 16 17 18 19 20 21 22 23 24 25 26 27 28 29 30 31 32 33 34 35 36 37 38 39 40 41 42 43 44 45 46 47 48 49 50
000
ASUS44 KMEG 261710
RWRTN
TENNESSEE HOURLY STATE WEATHER ROUNDUP
NATIONAL WEATHER SERVICE MEMPHIS TN
1200 PM CDT FRI AUG 26 2016

TNZ002-004-019-021-049-052-054-088>092-261800-
WEST TENNESSEE

CITY           SKY/WX    TMP DP  RH WIND       PRES   REMARKS
MEMPHIS INTL   CLOUDY    86  77  74 N6        30.08F HX  97
NWS MEMPHIS      N/A     89 N/A N/A MISG        N/A
JACKSON        PTSUNNY   89  79  72 E5        30.09F HX 104
DYERSBURG      SUNNY     90  77  66 MISG      30.08F HX 102
UNION CITY     SUNNY     90  75  62 E3        30.08F HX 100
PARIS          MOSUNNY   88  75  66 CALM      30.12F HX  97
LEXINGTON      SUNNY     90  75  62 VRB3      30.09F HX 100
$$

TNZ008-025-027-028-033-062-065-066-261800-
NORTH MIDDLE TENNESSEE

CITY           SKY/WX    TMP DP  RH WIND       PRES   REMARKS
NASHVILLE      MOSUNNY   91  74  57 E8        30.12F HX 100
CLARKSVILLE    CLOUDY    91  72  53 CALM      30.11F HX  98
SMYRNA         MOSUNNY   90  73  58 MISG      30.13F HX  98
COOKEVILLE     MOSUNNY   90  75  62 CALM      30.14S HX 100
CROSSVILLE     SUNNY     87  69  54 NE8       30.21F HX  91
$$

TNZ061-075-076-078-094-096-097-261800-
SOUTH MIDDLE TENNESSEE

CITY           SKY/WX    TMP DP  RH WIND       PRES   REMARKS
FAYETTEVILLE   SUNNY     90  73  58 VRB5      30.13F HX  98
TULLAHOMA      SUNNY     90  72  55 N7        30.15F HX  96
WINCHESTER     SUNNY     90  72  55 CALM      30.13F HX  96
MCMINNVILLE    SUNNY     91  75  59 NE6       30.14F HX 102
COLUMBIA       MOSUNNY   91  81  70 E5        30.10F HX 110
SHELBYVILLE    MOSUNNY   91  75  59 VRB5      30.13F HX 102
$$

TNZ017-018-042-046-047-261800-
NORTHEAST TENNESSEE

CITY           SKY/WX    TMP DP  RH WIND       PRES   REMARKS
TRI CITIES     MOSUNNY   87  70  56 SE8       30.19F HX  92
ELIZABETHTON   MOSUNNY   86  68  54 CALM      30.18F
$$

TNZ012-013-036-069-073-074-261800-
CENTRAL EAST TENNESSEE

CITY           SKY/WX    TMP DP  RH WIND       PRES   REMARKS
KNOXVILLE      MOSUNNY   91  70  49 NE10      30.14F HX  96
OAK RIDGE      SUNNY     89  72  56 VRB5      30.15F HX  96
GATLINBURG       N/A     88  70  55 NE9       30.15F HX  92
MORRISTOWN     MOSUNNY   88  72  58 VRB5      30.17F HX  94
$$

TNZ083-085-099-261800-
SOUTHEAST TENNESSEE

CITY           SKY/WX    TMP DP  RH WIND       PRES   REMARKS
CHATTANOOGA    MOSUNNY   92  71  50 NE8       30.12F HX  98
$$

SKY/WX REPORTED AS FAIR MEANS FEW OR NO CLOUDS BELOW
12 THOUSAND FEET.





USA.gov is the U.S. government's official web portal to all federal, state and local government web resources and services.